Time,TemperatureF,DewpointF,PressureIn,WindDirection,WindDirectionDegrees,WindSpeedMPH,WindSpeedGustMPH,Humidity,HourlyPrecipIn,Conditions,Clouds,dailyrainin,SoftwareType,DateUTC
2014-03-04 00:12:00,23.0,14.0,30.40,ESE,109,0.0,1.0,69,0.00,,,0.00,,2014-03-04 06:12:00,
2014-03-04 00:22:00,23.0,14.0,30.41,East,94,0.0,1.0,69,0.00,,,0.00,,2014-03-04 06:22:00,
2014-03-04 00:41:00,23.0,14.0,30.39,ENE,71,1.0,2.0,67,0.00,,,0.00,,2014-03-04 06:41:00,
2014-03-04 00:42:00,23.0,14.0,30.41,ENE,74,0.0,1.0,67,0.00,,,0.00,,2014-03-04 06:42:00,
2014-03-04 00:52:00,23.0,14.0,30.39,ENE,70,0.0,2.0,67,0.00,,,0.00,,2014-03-04 06:52:00,
2014-03-04 01:11:00,23.0,14.0,30.39,ENE,71,1.0,2.0,67,0.00,,,0.00,,2014-03-04 07:11:00,
2014-03-04 01:21:00,23.0,14.0,30.39,ENE,71,1.0,2.0,67,0.00,,,0.00,,2014-03-04 07:21:00,
2014-03-04 01:32:00,23.0,14.0,30.39,ENE,71,1.0,2.0,67,0.00,,,0.00,,2014-03-04 07:32:00,
2014-03-04 01:52:00,22.0,13.0,30.38,ENE,66,0.0,3.0,67,0.00,,,0.00,,2014-03-04 07:52:00,
2014-03-04 02:22:00,22.0,14.0,30.37,East,96,0.0,1.0,70,0.00,,,0.00,,2014-03-04 08:22:00,
2014-03-04 02:42:00,21.0,13.0,30.36,East,82,0.0,1.0,72,0.00,,,0.00,,2014-03-04 08:42:00,
2014-03-04 02:52:00,21.0,14.0,30.36,East,81,0.0,1.0,73,0.00,,,0.00,,2014-03-04 08:52:00,
2014-03-04 03:22:00,21.0,14.0,30.34,East,86,0.0,1.0,73,0.00,,,0.00,,2014-03-04 09:22:00,
2014-03-04 03:43:00,21.0,14.0,30.33,ENE,70,0.0,2.0,74,0.00,,,0.00,,2014-03-04 09:43:00,
2014-03-04 03:53:00,22.0,15.0,30.33,East,96,0.0,2.0,73,0.00,,,0.00,,2014-03-04 09:53:00,
2014-03-04 04:23:00,22.0,15.0,30.31,ENE,75,0.0,1.0,73,0.00,,,0.00,,2014-03-04 10:23:00,
2014-03-04 04:42:00,21.0,14.0,30.31,NNE,24,0.0,1.0,74,0.00,,,0.00,,2014-03-04 10:42:00,
2014-03-04 04:52:00,21.0,14.0,30.30,East,81,0.0,1.0,75,0.00,,,0.00,,2014-03-04 10:52:00,
2014-03-04 05:22:00,21.0,15.0,30.30,ENE,72,0.0,2.0,76,0.00,,,0.00,,2014-03-04 11:22:00,
2014-03-04 05:43:00,20.0,14.0,30.32,ESE,108,0.0,2.0,77,0.00,,,0.00,,2014-03-04 11:43:00,
2014-03-04 05:52:00,20.0,15.0,30.30,NE,41,0.0,2.0,79,0.00,,,0.00,,2014-03-04 11:52:00,
2014-03-04 06:22:00,19.0,14.0,30.32,East,89,0.0,1.0,81,0.00,,,0.00,,2014-03-04 12:22:00,
2014-03-04 06:42:00,19.0,14.0,30.33,SSE,157,0.0,1.0,82,0.00,,,0.00,,2014-03-04 12:42:00,
2014-03-04 06:52:00,19.0,15.0,30.33,ESE,107,0.0,1.0,83,0.00,,,0.00,,2014-03-04 12:52:00,
2014-03-04 07:11:00,19.0,14.0,30.32,ESE,107,0.0,1.0,82,0.00,,,0.00,,2014-03-04 13:11:00,
2014-03-04 07:22:00,19.0,14.0,30.32,ESE,107,0.0,1.0,82,0.00,,,0.00,,2014-03-04 13:22:00,
2014-03-04 07:42:00,20.0,15.0,30.32,East,101,0.0,1.0,82,0.00,,,0.00,,2014-03-04 13:42:00,
2014-03-04 07:53:00,20.0,15.0,30.32,SE,145,0.0,1.0,81,0.00,,,0.00,,2014-03-04 13:53:00,
2014-03-04 08:11:00,21.0,16.0,30.33,East,87,0.0,2.0,80,0.00,,,0.00,,2014-03-04 14:11:00,
2014-03-04 08:22:00,21.0,16.0,30.32,ENE,75,1.0,3.0,79,0.00,,,0.00,,2014-03-04 14:22:00,
2014-03-04 08:42:00,22.0,16.0,30.33,ESE,118,0.0,1.0,79,0.00,,,0.00,,2014-03-04 14:42:00,
2014-03-04 08:52:00,23.0,17.0,30.32,SE,136,0.0,2.0,79,0.00,,,0.00,,2014-03-04 14:52:00,
2014-03-04 09:22:00,25.0,19.0,30.33,SE,124,0.0,4.0,76,0.00,,,0.00,,2014-03-04 15:22:00,
2014-03-04 09:43:00,27.0,19.0,30.33,SW,221,2.0,4.0,72,0.00,,,0.00,,2014-03-04 15:43:00,
2014-03-04 09:53:00,29.0,20.0,30.32,SSW,195,1.0,4.0,68,0.00,,,0.00,,2014-03-04 15:53:00,
2014-03-04 10:22:00,30.0,19.0,30.32,SW,214,0.0,7.0,64,0.00,,,0.00,,2014-03-04 16:22:00,
2014-03-04 10:50:00,31.0,20.0,30.31,SE,139,2.0,8.0,64,0.00,,,0.00,,2014-03-04 16:50:00,
2014-03-04 11:00:00,32.0,20.0,30.30,SE,141,2.0,7.0,62,0.00,,,0.00,,2014-03-04 17:00:00,
2014-03-04 11:27:00,34.0,21.0,30.28,East,101,4.0,7.0,59,0.00,,,0.00,,2014-03-04 17:27:00,
2014-03-04 11:53:00,36.0,22.0,30.26,SW,227,2.0,8.0,57,0.00,,,0.00,,2014-03-04 17:53:00,
2014-03-04 12:13:00,36.0,21.0,30.25,East,96,1.0,6.0,55,0.01,,,0.01,,2014-03-04 18:13:00,
2014-03-04 12:22:00,37.0,22.0,30.24,SE,146,1.0,5.0,54,0.01,,,0.01,,2014-03-04 18:22:00,
2014-03-04 12:43:00,39.0,21.0,30.23,ESE,122,4.0,7.0,48,0.01,,,0.01,,2014-03-04 18:43:00,
2014-03-04 12:52:00,39.0,22.0,30.22,ENE,69,1.0,5.0,50,0.01,,,0.01,,2014-03-04 18:52:00,
2014-03-04 13:22:00,41.0,23.0,30.19,ESE,113,4.0,8.0,48,0.00,,,0.01,,2014-03-04 19:22:00,
2014-03-04 13:42:00,41.0,23.0,30.18,ENE,58,2.0,8.0,48,0.00,,,0.01,,2014-03-04 19:42:00,
2014-03-04 13:52:00,43.0,24.0,30.17,ENE,77,2.0,9.0,47,0.00,,,0.01,,2014-03-04 19:52:00,
2014-03-04 14:11:00,43.0,24.0,30.17,ESE,108,3.0,7.0,47,0.00,,,0.01,,2014-03-04 20:11:00,
2014-03-04 14:22:00,44.0,25.0,30.17,SE,138,1.0,5.0,46,0.00,,,0.01,,2014-03-04 20:22:00,
2014-03-04 14:42:00,46.0,26.0,30.16,East,97,1.0,5.0,45,0.00,,,0.01,,2014-03-04 20:42:00,
2014-03-04 14:52:00,46.0,25.0,30.16,ESE,119,0.0,7.0,44,0.00,,,0.01,,2014-03-04 20:52:00,
2014-03-04 15:11:00,46.0,25.0,30.15,SSE,158,3.0,8.0,44,0.00,,,0.01,,2014-03-04 21:11:00,
2014-03-04 15:22:00,46.0,27.0,30.15,SE,139,2.0,6.0,47,0.00,,,0.01,,2014-03-04 21:22:00,
2014-03-04 15:53:00,47.0,26.0,30.14,East,94,2.0,6.0,44,0.00,,,0.01,,2014-03-04 21:53:00,
2014-03-04 16:23:00,48.0,27.0,30.12,SE,143,3.0,9.0,43,0.00,,,0.01,,2014-03-04 22:23:00,
2014-03-04 16:43:00,49.0,27.0,30.11,SE,144,3.0,10.0,43,0.00,,,0.01,,2014-03-04 22:43:00,
2014-03-04 16:52:00,48.0,26.0,30.11,SE,129,3.0,9.0,42,0.00,,,0.01,,2014-03-04 22:52:00,
2014-03-04 17:22:00,48.0,27.0,30.11,SE,130,2.0,7.0,44,0.00,,,0.01,,2014-03-04 23:22:00,
2014-03-04 17:42:00,48.0,27.0,30.11,SW,226,3.0,5.0,44,0.00,,,0.01,,2014-03-04 23:42:00,
2014-03-04 17:52:00,47.0,28.0,30.10,SE,131,1.0,7.0,47,0.00,,,0.01,,2014-03-04 23:52:00,
2014-03-04 18:12:00,46.0,27.0,30.09,East,100,2.0,7.0,48,0.00,,,0.01,,2014-03-05 00:12:00,
2014-03-04 18:22:00,45.0,27.0,30.10,ESE,122,2.0,8.0,50,0.00,,,0.01,,2014-03-05 00:22:00,
2014-03-04 18:42:00,44.0,28.0,30.10,SE,146,1.0,5.0,53,0.00,,,0.01,,2014-03-05 00:42:00,
2014-03-04 18:52:00,43.0,28.0,30.09,ESE,109,1.0,6.0,56,0.00,,,0.01,,2014-03-05 00:52:00,
2014-03-04 19:11:00,42.0,29.0,30.09,ESE,110,0.0,4.0,59,0.00,,,0.01,,2014-03-05 01:11:00,
2014-03-04 19:22:00,41.0,29.0,30.09,ESE,112,0.0,4.0,61,0.00,,,0.01,,2014-03-05 01:22:00,
2014-03-04 19:42:00,40.0,28.0,30.09,ESE,103,0.0,2.0,62,0.00,,,0.01,,2014-03-05 01:42:00,
2014-03-04 19:52:00,40.0,28.0,30.09,ESE,103,0.0,2.0,63,0.00,,,0.01,,2014-03-05 01:52:00,
2014-03-04 20:22:00,38.0,28.0,30.09,East,89,0.0,0.0,66,0.00,,,0.01,,2014-03-05 02:22:00,
2014-03-04 20:42:00,37.0,27.0,30.09,ESE,120,0.0,2.0,68,0.00,,,0.01,,2014-03-05 02:42:00,
2014-03-04 20:52:00,37.0,27.0,30.09,ESE,108,0.0,3.0,68,0.00,,,0.01,,2014-03-05 02:52:00,
2014-03-04 21:11:00,36.0,27.0,30.09,ESE,115,0.0,2.0,70,0.00,,,0.01,,2014-03-05 03:11:00,
2014-03-04 21:22:00,36.0,28.0,30.10,ESE,117,0.0,1.0,71,0.00,,,0.01,,2014-03-05 03:22:00,
2014-03-04 21:43:00,35.0,27.0,30.11,ESE,112,0.0,1.0,72,0.00,,,0.01,,2014-03-05 03:43:00,
2014-03-04 21:54:00,35.0,27.0,30.12,ESE,106,0.0,1.0,72,0.00,,,0.01,,2014-03-05 03:54:00,
2014-03-04 22:23:00,34.0,27.0,30.11,East,96,0.0,6.0,74,0.00,,,0.01,,2014-03-05 04:23:00,
2014-03-04 22:43:00,34.0,27.0,30.11,ESE,105,0.0,5.0,75,0.00,,,0.01,,2014-03-05 04:43:00,
2014-03-04 22:53:00,34.0,28.0,30.11,SE,141,0.0,4.0,77,0.00,,,0.01,,2014-03-05 04:53:00,
2014-03-04 23:22:00,33.0,27.0,30.11,ESE,108,0.0,2.0,79,0.00,,,0.01,,2014-03-05 05:22:00,
2014-03-04 23:43:00,32.0,27.0,30.12,SSW,192,0.0,3.0,81,0.00,,,0.01,,2014-03-05 05:43:00,
2014-03-04 23:53:00,32.0,27.0,30.12,SE,140,0.0,3.0,82,0.00,,,0.01,,2014-03-05 05:53:00,